Overview Statistics Trail Chart Weather Telemetry Raw packets
 

This is the latest recevied weather packets stored in our database for station/object KB9YVI-11. If no packets are shown the sender has not sent any weather packets the latest 10 day(s).

<< 32 33 34 35 36 37 38 >>
Time Temp. Humidity Pressure Rain* Wind** Luminosity Snow
1788232321 25.56° C 100% 0 hPa 0 mm - - -
1788231721 26.11° C 100% 0 hPa 0 mm - - -
1788229921 26.67° C 99% 0 hPa 0 mm - - -
1788229320 27.22° C 98% 0 hPa 0 mm - - -
1788226921 27.78° C 97% 0 hPa 0 mm - - -
1788225720 27.78° C 98% 0 hPa 0 mm - - -
1788224221 28.33° C 97% 0 hPa 0 mm - - -
1788223921 28.33° C 97% 0 hPa 0 mm - - -
1788223621 28.89° C 96% 0 hPa 0 mm - - -
1788222422 29.44° C 95% 0 hPa 0 mm - - -
1788222125 29.44° C 95% 0 hPa 0 mm - - -
1788221821 30° C 94% 0 hPa 0 mm - - -
1788220921 30.56° C 92% 0 hPa 0 mm - - -
1788220622 30.56° C 90% 0 hPa 0 mm - - -
1788219722 31.11° C 88% 0 hPa 0 mm - - -
1788218520 32.22° C 85% 0 hPa 0 mm - - -
1788218222 32.22° C 83% 0 hPa 0 mm - - -
1788217922 32.78° C 83% 0 hPa 0 mm - - -
1788217322 33.33° C 81% 0 hPa 0 mm - - -
1788215822 33.89° C 77% 0 hPa 0 mm - - -
1788215522 34.44° C 76% 0 hPa 0 mm - - -
1788215222 34.44° C 76% 0 hPa 0 mm - - -
1788214921 34.44° C 76% 0 hPa 0 mm - - -
1788214322 33.89° C 77% 0 hPa 0 mm - - -
1788213723 33.33° C 77% 0 hPa 0 mm - - -

* Rain latest hour (hover to see other rain measurements)
** Current wind speed in m/s (hover to see current wind gust speed)